Time,TemperatureF,DewpointF,PressureIn,WindDirection,WindDirectionDegrees,WindSpeedMPH,WindSpeedGustMPH,Humidity,HourlyPrecipIn,Conditions,Clouds,dailyrainin,SoftwareType,DateUTC
2013-03-21 00:02:00,21.7,11.7,29.18,NNW,338,0.0,0.0,65,0.00,,,0.00,WUHU216HW,2013-03-21 05:02:00,
2013-03-21 00:07:00,21.7,11.7,29.18,NNW,338,0.0,0.0,65,0.00,,,0.00,WUHU216HW,2013-03-21 05:07:00,
2013-03-21 00:12:00,21.0,11.3,29.18,NNW,338,0.0,0.0,66,0.00,,,0.00,WUHU216HW,2013-03-21 05:12:00,
2013-03-21 00:17:00,21.0,11.3,29.17,NNW,338,0.0,0.0,66,0.00,,,0.00,WUHU216HW,2013-03-21 05:17:00,
2013-03-21 00:22:00,21.0,11.3,29.17,NNW,338,0.0,0.0,66,0.00,,,0.00,WUHU216HW,2013-03-21 05:22:00,
2013-03-21 00:27:00,21.0,11.3,29.17,NNW,338,0.0,0.0,66,0.00,,,0.00,WUHU216HW,2013-03-21 05:27:00,
2013-03-21 00:32:00,21.0,11.3,29.17,NNW,338,0.0,0.0,66,0.00,,,0.00,WUHU216HW,2013-03-21 05:32:00,
2013-03-21 00:37:00,21.3,11.7,29.17,NNW,338,0.0,0.0,66,0.00,,,0.00,WUHU216HW,2013-03-21 05:37:00,
2013-03-21 00:43:00,21.7,11.7,29.17,NNW,338,0.0,0.0,65,0.00,,,0.00,WUHU216HW,2013-03-21 05:43:00,
2013-03-21 00:48:00,21.9,11.5,29.17,NNW,338,0.0,0.0,64,0.00,,,0.00,WUHU216HW,2013-03-21 05:48:00,
2013-03-21 00:53:00,22.1,11.7,29.17,NNW,338,0.0,0.0,64,0.00,,,0.00,WUHU216HW,2013-03-21 05:53:00,
2013-03-21 00:58:00,22.1,11.3,29.17,NNW,338,0.0,0.0,63,0.00,,,0.00,WUHU216HW,2013-03-21 05:58:00,
2013-03-21 01:03:00,22.1,11.3,29.17,NNW,338,0.0,0.0,63,0.00,,,0.00,WUHU216HW,2013-03-21 06:03:00,
2013-03-21 01:08:00,22.1,11.3,29.17,NNW,338,0.0,0.0,63,0.00,,,0.00,WUHU216HW,2013-03-21 06:08:00,
2013-03-21 01:13:00,21.9,11.1,29.16,NNW,338,0.0,0.0,63,0.00,,,0.00,WUHU216HW,2013-03-21 06:13:00,
2013-03-21 01:18:00,21.9,11.1,29.16,NNW,338,0.0,0.0,63,0.00,,,0.00,WUHU216HW,2013-03-21 06:18:00,
2013-03-21 01:23:00,21.7,11.0,29.16,NNW,338,0.0,0.0,63,0.00,,,0.00,WUHU216HW,2013-03-21 06:23:00,
2013-03-21 01:28:00,21.3,10.6,29.15,NNW,338,0.0,0.0,63,0.00,,,0.00,WUHU216HW,2013-03-21 06:28:00,
2013-03-21 01:33:00,21.3,10.6,29.16,NNW,338,0.0,0.0,64,0.00,,,0.00,WUHU216HW,2013-03-21 06:33:00,
2013-03-21 01:38:00,21.0,10.6,29.15,NNW,338,0.0,0.0,64,0.00,,,0.00,WUHU216HW,2013-03-21 06:38:00,
2013-03-21 01:43:00,20.8,10.5,29.15,NNW,338,0.0,0.0,64,0.00,,,0.00,WUHU216HW,2013-03-21 06:43:00,
2013-03-21 01:48:00,20.4,10.1,29.15,NNW,338,0.0,0.0,64,0.00,,,0.00,WUHU216HW,2013-03-21 06:48:00,
2013-03-21 01:53:00,20.3,10.3,29.16,NNW,338,0.0,0.0,65,0.00,,,0.00,WUHU216HW,2013-03-21 06:53:00,
2013-03-21 01:58:00,20.4,10.4,29.16,NNW,338,0.0,0.0,65,0.00,,,0.00,WUHU216HW,2013-03-21 06:58:00,
2013-03-21 02:04:00,20.8,10.8,29.15,NNW,338,0.0,0.0,65,0.00,,,0.00,WUHU216HW,2013-03-21 07:04:00,
2013-03-21 02:09:00,21.0,11.0,29.15,NNW,338,0.0,0.0,65,0.00,,,0.00,WUHU216HW,2013-03-21 07:09:00,
2013-03-21 02:14:00,20.8,10.8,29.15,NNW,338,0.0,0.0,65,0.00,,,0.00,WUHU216HW,2013-03-21 07:14:00,
2013-03-21 02:19:00,20.4,10.8,29.15,NNW,338,0.0,0.0,66,0.00,,,0.00,WUHU216HW,2013-03-21 07:19:00,
2013-03-21 02:24:00,20.3,10.6,29.15,NNW,338,0.0,0.0,66,0.00,,,0.00,WUHU216HW,2013-03-21 07:24:00,
2013-03-21 02:29:00,19.9,10.6,29.15,NNW,338,0.0,0.0,67,0.00,,,0.00,WUHU216HW,2013-03-21 07:29:00,
2013-03-21 02:34:00,20.1,10.8,29.15,NNW,338,0.0,0.0,67,0.00,,,0.00,WUHU216HW,2013-03-21 07:34:00,
2013-03-21 02:39:00,20.4,11.5,29.15,NNW,338,0.0,0.0,68,0.00,,,0.00,WUHU216HW,2013-03-21 07:39:00,
2013-03-21 02:44:00,20.4,11.5,29.15,NNW,338,0.0,0.0,68,0.00,,,0.00,WUHU216HW,2013-03-21 07:44:00,
2013-03-21 02:49:00,20.8,12.2,29.14,NNW,338,0.0,0.0,69,0.00,,,0.00,WUHU216HW,2013-03-21 07:49:00,
2013-03-21 02:54:00,21.0,12.0,29.13,NNW,338,0.0,0.0,68,0.00,,,0.00,WUHU216HW,2013-03-21 07:54:00,
2013-03-21 02:59:00,21.5,12.5,29.14,NNW,338,0.0,0.0,68,0.00,,,0.00,WUHU216HW,2013-03-21 07:59:00,
2013-03-21 03:05:00,21.9,12.5,29.13,NNW,338,0.0,0.0,67,0.00,,,0.00,WUHU216HW,2013-03-21 08:05:00,
2013-03-21 03:10:00,22.1,12.7,29.13,NNW,338,0.0,0.0,67,0.00,,,0.00,WUHU216HW,2013-03-21 08:10:00,
2013-03-21 03:15:00,22.2,12.5,29.13,NNW,338,0.0,0.0,66,0.00,,,0.00,WUHU216HW,2013-03-21 08:15:00,
2013-03-21 03:20:00,22.4,12.7,29.13,NNW,338,0.0,0.0,66,0.00,,,0.00,WUHU216HW,2013-03-21 08:20:00,
2013-03-21 03:25:00,22.6,12.9,29.13,NNW,338,0.0,0.0,66,0.00,,,0.00,WUHU216HW,2013-03-21 08:25:00,
2013-03-21 03:30:00,22.8,13.1,29.12,NNW,338,0.0,0.0,66,0.00,,,0.00,WUHU216HW,2013-03-21 08:30:00,
2013-03-21 03:35:00,23.1,13.4,29.12,NNW,338,0.0,0.0,66,0.00,,,0.00,WUHU216HW,2013-03-21 08:35:00,
2013-03-21 03:40:00,23.3,13.2,29.12,NNW,338,0.0,0.0,65,0.00,,,0.00,WUHU216HW,2013-03-21 08:40:00,
2013-03-21 03:45:00,23.5,13.4,29.12,NNW,338,0.0,0.0,65,0.00,,,0.00,WUHU216HW,2013-03-21 08:45:00,
2013-03-21 03:50:00,23.7,13.7,29.12,NNW,338,0.0,0.0,65,0.00,,,0.00,WUHU216HW,2013-03-21 08:50:00,
2013-03-21 03:55:00,24.0,13.9,29.12,NNW,338,0.0,0.0,65,0.00,,,0.00,WUHU216HW,2013-03-21 08:55:00,
2013-03-21 04:00:00,24.6,14.1,29.12,NNW,338,0.0,0.0,64,0.00,,,0.00,WUHU216HW,2013-03-21 09:00:00,
2013-03-21 04:05:00,24.6,14.1,29.11,NNW,338,0.0,0.0,64,0.00,,,0.00,WUHU216HW,2013-03-21 09:05:00,
2013-03-21 04:10:00,24.9,14.4,29.12,NNW,338,0.0,0.0,64,0.00,,,0.00,WUHU216HW,2013-03-21 09:10:00,
2013-03-21 04:15:00,25.3,14.4,29.12,NNW,338,0.0,0.0,63,0.00,,,0.00,WUHU216HW,2013-03-21 09:15:00,
2013-03-21 04:20:00,25.5,14.6,29.12,NNW,338,0.0,0.0,63,0.00,,,0.00,WUHU216HW,2013-03-21 09:20:00,
2013-03-21 04:25:00,25.5,13.9,29.11,North,0,0.0,2.2,61,0.00,,,0.00,WUHU216HW,2013-03-21 09:25:00,
2013-03-21 04:30:00,25.8,13.8,29.11,NNE,23,0.0,5.8,60,0.00,,,0.00,WUHU216HW,2013-03-21 09:30:00,
2013-03-21 04:36:00,25.8,13.8,29.11,NNE,23,0.0,5.8,60,0.00,,,0.00,WUHU216HW,2013-03-21 09:36:00,
2013-03-21 04:41:00,25.7,13.7,29.11,NNE,23,0.0,6.2,60,0.00,,,0.00,WUHU216HW,2013-03-21 09:41:00,
2013-03-21 04:46:00,25.5,13.5,29.11,NNE,23,0.0,6.2,60,0.00,,,0.00,WUHU216HW,2013-03-21 09:46:00,
2013-03-21 04:51:00,25.5,13.5,29.10,NNE,23,0.0,3.8,60,0.00,,,0.00,WUHU216HW,2013-03-21 09:51:00,
2013-03-21 04:56:00,25.3,13.4,29.10,NNE,23,0.0,0.0,60,0.00,,,0.00,WUHU216HW,2013-03-21 09:56:00,
2013-03-21 05:01:00,25.1,13.2,29.10,NNE,23,0.0,0.0,60,0.00,,,0.00,WUHU216HW,2013-03-21 10:01:00,
2013-03-21 05:06:00,24.9,13.0,29.10,NNE,23,0.0,0.0,60,0.00,,,0.00,WUHU216HW,2013-03-21 10:06:00,
2013-03-21 05:11:00,24.8,12.5,29.10,NNE,23,0.0,0.0,59,0.00,,,0.00,WUHU216HW,2013-03-21 10:11:00,
2013-03-21 05:16:00,24.6,12.7,29.10,NNE,23,0.0,0.0,60,0.00,,,0.00,WUHU216HW,2013-03-21 10:16:00,
2013-03-21 05:21:00,24.6,12.7,29.10,NNE,23,0.0,0.0,60,0.00,,,0.00,WUHU216HW,2013-03-21 10:21:00,
2013-03-21 05:26:00,24.6,12.7,29.10,NE,45,5.3,5.3,60,0.00,,,0.00,WUHU216HW,2013-03-21 10:26:00,
2013-03-21 05:31:00,24.4,12.5,29.10,NE,45,0.0,5.3,60,0.00,,,0.00,WUHU216HW,2013-03-21 10:31:00,
2013-03-21 05:36:00,24.4,12.5,29.10,NE,45,0.0,5.3,60,0.00,,,0.00,WUHU216HW,2013-03-21 10:36:00,
2013-03-21 05:41:00,24.4,12.5,29.10,ENE,68,0.0,4.0,60,0.00,,,0.00,WUHU216HW,2013-03-21 10:41:00,
2013-03-21 05:46:00,24.0,12.5,29.10,ENE,68,2.6,4.0,61,0.00,,,0.00,WUHU216HW,2013-03-21 10:46:00,
2013-03-21 05:51:00,24.2,12.7,29.10,East,90,3.1,5.1,61,0.00,,,0.00,WUHU216HW,2013-03-21 10:51:00,
2013-03-21 05:57:00,24.4,12.9,29.10,East,90,0.0,5.1,61,0.00,,,0.00,WUHU216HW,2013-03-21 10:57:00,
2013-03-21 06:02:00,24.6,12.7,29.10,East,90,0.0,3.1,60,0.00,,,0.00,WUHU216HW,2013-03-21 11:02:00,
2013-03-21 06:07:00,24.9,13.4,29.11,East,90,0.0,0.0,61,0.00,,,0.00,WUHU216HW,2013-03-21 11:07:00,
2013-03-21 06:12:00,24.9,13.0,29.10,ESE,113,0.0,0.0,60,0.00,,,0.00,WUHU216HW,2013-03-21 11:12:00,
2013-03-21 06:17:00,24.9,13.0,29.11,ENE,68,0.0,0.0,60,0.00,,,0.00,WUHU216HW,2013-03-21 11:17:00,
2013-03-21 06:22:00,24.9,13.0,29.11,East,90,0.0,0.0,60,0.00,,,0.00,WUHU216HW,2013-03-21 11:22:00,
2013-03-21 06:28:00,24.9,13.0,29.11,East,90,0.0,0.0,60,0.00,,,0.00,WUHU216HW,2013-03-21 11:28:00,
2013-03-21 06:33:00,24.9,12.6,29.11,East,90,0.0,0.0,59,0.00,,,0.00,WUHU216HW,2013-03-21 11:33:00,
2013-03-21 06:38:00,25.1,12.8,29.11,ENE,68,0.0,0.0,59,0.00,,,0.00,WUHU216HW,2013-03-21 11:38:00,
2013-03-21 06:43:00,25.1,12.8,29.11,ENE,68,0.0,0.0,59,0.00,,,0.00,WUHU216HW,2013-03-21 11:43:00,
2013-03-21 06:48:00,25.1,12.8,29.11,ENE,68,0.0,0.0,59,0.00,,,0.00,WUHU216HW,2013-03-21 11:48:00,
2013-03-21 07:00:00,25.5,12.7,29.12,ESE,113,0.0,0.0,58,0.00,,,0.00,WUHU216HW,2013-03-21 12:00:00,
2013-03-21 07:05:00,25.7,12.4,29.12,East,90,0.0,0.0,57,0.00,,,0.00,WUHU216HW,2013-03-21 12:05:00,
2013-03-21 07:10:00,25.8,13.0,29.12,East,90,6.9,6.9,58,0.00,,,0.00,WUHU216HW,2013-03-21 12:10:00,
2013-03-21 07:16:00,25.8,12.6,29.12,ESE,113,3.5,6.9,57,0.00,,,0.00,WUHU216HW,2013-03-21 12:16:00,
2013-03-21 07:21:00,25.8,13.0,29.12,ENE,68,0.0,3.5,58,0.00,,,0.00,WUHU216HW,2013-03-21 12:21:00,
2013-03-21 07:26:00,25.8,13.0,29.12,ENE,68,0.0,3.5,58,0.00,,,0.00,WUHU216HW,2013-03-21 12:26:00,
2013-03-21 07:31:00,25.8,13.0,29.12,ENE,68,0.0,0.0,58,0.00,,,0.00,WUHU216HW,2013-03-21 12:31:00,
2013-03-21 07:36:00,25.8,12.6,29.12,East,90,0.0,2.2,57,0.00,,,0.00,WUHU216HW,2013-03-21 12:36:00,
2013-03-21 07:41:00,26.0,12.8,29.12,East,90,0.0,2.2,57,0.00,,,0.00,WUHU216HW,2013-03-21 12:41:00,
2013-03-21 07:46:00,26.0,12.8,29.12,East,90,1.1,1.1,57,0.00,,,0.00,WUHU216HW,2013-03-21 12:46:00,
2013-03-21 07:51:00,26.2,12.9,29.11,ENE,68,6.9,6.9,57,0.00,,,0.00,WUHU216HW,2013-03-21 12:51:00,
2013-03-21 07:57:00,26.2,12.9,29.11,ENE,68,0.0,6.9,57,0.00,,,0.00,WUHU216HW,2013-03-21 12:57:00,
2013-03-21 08:02:00,26.2,12.9,29.11,ENE,68,0.0,6.2,57,0.00,,,0.00,WUHU216HW,2013-03-21 13:02:00,
2013-03-21 08:07:00,26.2,12.9,29.12,ENE,68,0.0,0.0,57,0.00,,,0.00,WUHU216HW,2013-03-21 13:07:00,
2013-03-21 08:12:00,26.2,12.5,29.11,ENE,68,0.0,0.0,56,0.00,,,0.00,WUHU216HW,2013-03-21 13:12:00,
2013-03-21 08:17:00,26.2,12.5,29.11,ENE,68,0.0,0.0,56,0.00,,,0.00,WUHU216HW,2013-03-21 13:17:00,
2013-03-21 08:22:00,26.2,12.5,29.11,ENE,68,0.0,0.0,56,0.00,,,0.00,WUHU216HW,2013-03-21 13:22:00,
2013-03-21 09:00:00,26.9,12.4,29.09,East,90,6.9,6.9,54,0.00,,,0.00,WUHU216HW,2013-03-21 14:00:00,
2013-03-21 09:06:00,26.9,12.4,29.09,East,90,6.9,6.9,54,0.00,,,0.00,WUHU216HW,2013-03-21 14:06:00,
2013-03-21 09:11:00,27.1,13.4,29.09,NE,45,11.4,11.4,56,0.00,,,0.00,WUHU216HW,2013-03-21 14:11:00,
2013-03-21 09:16:00,27.3,13.1,29.09,ENE,68,10.2,11.4,55,0.00,,,0.00,WUHU216HW,2013-03-21 14:16:00,
2013-03-21 09:21:00,27.3,12.7,29.09,ENE,68,6.9,11.4,54,0.00,,,0.00,WUHU216HW,2013-03-21 14:21:00,
2013-03-21 09:27:00,27.5,12.9,29.08,ENE,68,6.9,6.9,54,0.00,,,0.00,WUHU216HW,2013-03-21 14:27:00,
2013-03-21 09:32:00,27.3,12.7,29.07,NE,45,0.0,6.9,54,0.00,,,0.00,WUHU216HW,2013-03-21 14:32:00,
2013-03-21 09:37:00,27.5,13.3,29.07,NE,45,4.4,6.9,55,0.00,,,0.00,WUHU216HW,2013-03-21 14:37:00,
2013-03-21 09:42:00,27.5,13.3,29.07,NE,45,4.4,4.4,55,0.00,,,0.00,WUHU216HW,2013-03-21 14:42:00,
2013-03-21 09:47:00,27.5,13.3,29.07,NNE,23,12.5,12.5,55,0.00,,,0.00,WUHU216HW,2013-03-21 14:47:00,
2013-03-21 09:52:00,27.5,12.9,29.06,NNE,23,12.5,12.5,54,0.00,,,0.00,WUHU216HW,2013-03-21 14:52:00,
2013-03-21 09:57:00,27.5,12.9,29.06,NNE,23,12.5,12.5,54,0.00,,,0.00,WUHU216HW,2013-03-21 14:57:00,
2013-03-21 10:02:00,27.5,12.9,29.06,NNE,23,12.5,12.5,54,0.00,,,0.00,WUHU216HW,2013-03-21 15:02:00,
2013-03-21 10:07:00,27.5,12.9,29.06,NNE,23,12.5,12.5,54,0.00,,,0.00,WUHU216HW,2013-03-21 15:07:00,
2013-03-21 10:12:00,27.5,12.9,29.06,ENE,68,11.6,12.5,54,0.00,,,0.00,WUHU216HW,2013-03-21 15:12:00,
2013-03-21 10:17:00,27.5,12.9,29.06,ENE,68,11.6,12.5,54,0.00,,,0.00,WUHU216HW,2013-03-21 15:17:00,
2013-03-21 10:22:00,28.2,13.6,29.06,ENE,68,8.9,11.6,54,0.00,,,0.00,WUHU216HW,2013-03-21 15:22:00,
2013-03-21 10:27:00,28.2,13.2,29.06,East,90,8.5,11.6,53,0.00,,,0.00,WUHU216HW,2013-03-21 15:27:00,
2013-03-21 10:32:00,28.2,13.2,29.07,NE,45,9.3,9.3,53,0.00,,,0.00,WUHU216HW,2013-03-21 15:32:00,
2013-03-21 10:37:00,28.2,13.2,29.07,ESE,113,7.3,9.3,53,0.00,,,0.00,WUHU216HW,2013-03-21 15:37:00,
2013-03-21 10:43:00,28.2,13.6,29.07,East,90,8.2,9.3,54,0.00,,,0.00,WUHU216HW,2013-03-21 15:43:00,
2013-03-21 10:48:00,28.7,14.1,29.07,East,90,6.9,8.9,54,0.00,,,0.00,WUHU216HW,2013-03-21 15:48:00,
2013-03-21 10:53:00,29.1,14.5,29.07,East,90,7.6,8.2,54,0.00,,,0.00,WUHU216HW,2013-03-21 15:53:00,
2013-03-21 10:58:00,29.1,14.0,29.07,East,90,7.6,7.6,53,0.00,,,0.00,WUHU216HW,2013-03-21 15:58:00,
2013-03-21 11:03:00,28.9,14.7,29.07,East,90,8.0,8.0,55,0.00,,,0.00,WUHU216HW,2013-03-21 16:03:00,
2013-03-21 11:08:00,28.9,14.7,29.07,East,90,8.0,8.0,55,0.00,,,0.00,WUHU216HW,2013-03-21 16:08:00,
2013-03-21 11:13:00,28.5,16.0,29.07,SE,135,8.0,8.0,59,0.00,,,0.00,WUHU216HW,2013-03-21 16:13:00,
2013-03-21 11:18:00,28.5,16.0,29.07,SE,135,8.0,8.0,59,0.00,,,0.00,WUHU216HW,2013-03-21 16:18:00,
2013-03-21 11:23:00,27.6,17.4,29.07,SE,135,8.0,8.0,65,0.00,,,0.00,WUHU216HW,2013-03-21 16:23:00,
2013-03-21 11:28:00,27.5,17.2,29.07,SE,135,8.0,8.0,65,0.00,,,0.00,WUHU216HW,2013-03-21 16:28:00,
2013-03-21 11:33:00,27.3,18.5,29.07,ESE,113,0.0,8.0,69,0.00,,,0.00,WUHU216HW,2013-03-21 16:33:00,
2013-03-21 11:38:00,27.3,18.5,29.07,East,90,4.6,8.0,69,0.00,,,0.00,WUHU216HW,2013-03-21 16:38:00,
2013-03-21 11:43:00,27.1,18.9,29.07,East,90,3.8,4.6,71,0.00,,,0.00,WUHU216HW,2013-03-21 16:43:00,
2013-03-21 11:48:00,26.7,19.2,29.07,East,90,5.3,5.8,73,0.00,,,0.00,WUHU216HW,2013-03-21 16:48:00,
2013-03-21 11:53:00,26.7,19.2,29.06,East,90,5.3,5.8,73,0.00,,,0.00,WUHU216HW,2013-03-21 16:53:00,
2013-03-21 11:58:00,26.7,19.2,29.06,East,90,5.3,5.3,73,0.00,,,0.00,WUHU216HW,2013-03-21 16:58:00,
2013-03-21 13:09:00,27.6,21.3,29.04,ENE,68,7.3,7.3,77,0.00,,,0.00,WUHU216HW,2013-03-21 18:09:00,
2013-03-21 13:14:00,27.6,21.0,29.04,NE,45,10.2,10.2,76,0.00,,,0.00,WUHU216HW,2013-03-21 18:14:00,
2013-03-21 13:19:00,27.3,21.0,29.03,East,90,6.4,10.2,77,0.00,,,0.00,WUHU216HW,2013-03-21 18:19:00,
2013-03-21 13:24:00,27.3,21.0,29.03,ENE,68,9.1,9.3,77,0.00,,,0.00,WUHU216HW,2013-03-21 18:24:00,
2013-03-21 13:29:00,27.3,21.0,29.03,East,90,6.9,9.3,77,0.00,,,0.00,WUHU216HW,2013-03-21 18:29:00,
2013-03-21 13:34:00,27.3,21.0,29.03,East,90,6.9,9.1,77,0.00,,,0.00,WUHU216HW,2013-03-21 18:34:00,
2013-03-21 13:39:00,27.3,21.0,29.03,East,90,6.9,6.9,77,0.00,,,0.00,WUHU216HW,2013-03-21 18:39:00,
2013-03-21 13:44:00,27.6,21.3,29.02,East,90,8.5,8.5,77,0.00,,,0.00,WUHU216HW,2013-03-21 18:44:00,
2013-03-21 13:49:00,28.0,21.7,29.02,ENE,68,4.4,8.5,77,0.00,,,0.00,WUHU216HW,2013-03-21 18:49:00,
2013-03-21 13:54:00,28.2,21.9,29.02,East,90,7.6,7.6,77,0.00,,,0.00,WUHU216HW,2013-03-21 18:54:00,
2013-03-21 13:59:00,28.2,21.9,29.01,ENE,68,5.3,7.6,77,0.00,,,0.00,WUHU216HW,2013-03-21 18:59:00,
2013-03-21 14:04:00,28.4,22.0,29.00,ENE,68,0.0,7.6,77,0.00,,,0.00,WUHU216HW,2013-03-21 19:04:00,
2013-03-21 14:09:00,28.4,22.0,29.00,ENE,68,0.0,0.0,77,0.00,,,0.00,WUHU216HW,2013-03-21 19:09:00,
2013-03-21 14:14:00,28.4,22.0,29.00,ENE,68,0.0,0.0,77,0.00,,,0.00,WUHU216HW,2013-03-21 19:14:00,
2013-03-21 14:20:00,28.4,22.0,28.99,ENE,68,0.0,0.0,77,0.00,,,0.00,WUHU216HW,2013-03-21 19:20:00,
2013-03-21 15:20:00,27.6,21.9,28.98,East,90,6.7,6.7,79,0.00,,,0.00,WUHU216HW,2013-03-21 20:20:00,
2013-03-21 15:25:00,27.6,22.2,28.98,ENE,68,4.9,6.7,80,0.00,,,0.00,WUHU216HW,2013-03-21 20:25:00,
2013-03-21 15:30:00,27.6,22.2,28.98,East,90,4.6,6.7,80,0.00,,,0.00,WUHU216HW,2013-03-21 20:30:00,
2013-03-21 15:35:00,27.5,22.3,28.98,ENE,68,4.6,7.1,81,0.00,,,0.00,WUHU216HW,2013-03-21 20:35:00,
2013-03-21 15:40:00,27.3,22.2,28.98,East,90,7.6,7.6,81,0.00,,,0.00,WUHU216HW,2013-03-21 20:40:00,
2013-03-21 15:45:00,27.3,22.2,28.98,ESE,113,5.3,7.6,81,0.00,,,0.00,WUHU216HW,2013-03-21 20:45:00,
2013-03-21 15:50:00,27.3,22.2,28.97,ESE,113,5.3,5.3,81,0.00,,,0.00,WUHU216HW,2013-03-21 20:50:00,
2013-03-21 15:55:00,27.1,22.3,28.97,East,90,0.0,5.3,82,0.00,,,0.00,WUHU216HW,2013-03-21 20:55:00,
2013-03-21 16:00:00,27.1,22.3,28.96,East,90,8.0,8.0,82,0.00,,,0.00,WUHU216HW,2013-03-21 21:00:00,
2013-03-21 16:05:00,27.3,22.4,28.97,East,90,3.1,8.0,82,0.00,,,0.00,WUHU216HW,2013-03-21 21:05:00,
2013-03-21 16:10:00,27.3,22.4,28.97,ENE,68,6.0,8.0,82,0.00,,,0.00,WUHU216HW,2013-03-21 21:10:00,
2013-03-21 16:15:00,27.3,22.4,28.97,ENE,68,11.6,11.6,82,0.00,,,0.00,WUHU216HW,2013-03-21 21:15:00,
2013-03-21 16:20:00,27.3,22.4,28.97,ENE,68,11.6,11.6,82,0.00,,,0.00,WUHU216HW,2013-03-21 21:20:00,
2013-03-21 16:25:00,27.3,22.4,28.97,ENE,68,11.6,11.6,82,0.00,,,0.00,WUHU216HW,2013-03-21 21:25:00,
2013-03-21 16:37:00,27.3,22.4,28.98,East,90,2.0,2.0,82,0.00,,,0.00,WUHU216HW,2013-03-21 21:37:00,
2013-03-21 16:42:00,27.5,22.3,28.98,ENE,68,8.0,8.0,81,0.00,,,0.00,WUHU216HW,2013-03-21 21:42:00,
2013-03-21 16:47:00,27.3,22.2,28.98,ESE,113,8.0,8.0,81,0.00,,,0.00,WUHU216HW,2013-03-21 21:47:00,
2013-03-21 16:52:00,27.3,22.2,28.98,ESE,113,8.0,8.0,81,0.00,,,0.00,WUHU216HW,2013-03-21 21:52:00,
2013-03-21 16:57:00,27.3,22.2,28.98,ESE,113,8.0,8.0,81,0.00,,,0.00,WUHU216HW,2013-03-21 21:57:00,
2013-03-21 17:02:00,27.5,22.3,28.98,ESE,113,3.8,8.0,81,0.00,,,0.00,WUHU216HW,2013-03-21 22:02:00,
2013-03-21 17:07:00,27.5,22.3,28.98,ESE,113,3.8,3.8,81,0.00,,,0.00,WUHU216HW,2013-03-21 22:07:00,
2013-03-21 17:12:00,27.5,22.3,28.98,ESE,113,3.8,3.8,81,0.00,,,0.00,WUHU216HW,2013-03-21 22:12:00,
2013-03-21 17:17:00,27.5,22.3,28.97,ESE,113,3.8,3.8,81,0.00,,,0.00,WUHU216HW,2013-03-21 22:17:00,
2013-03-21 17:22:00,27.5,22.3,28.97,ESE,113,3.8,3.8,81,0.00,,,0.00,WUHU216HW,2013-03-21 22:22:00,